This demonstration page uses our WeatherBlox Daily Observations layout. Learn more.

Left ArrowRight Arrow

39.01783, -85.05884

Hourly Observations for September 30, 2017

Temp ( °F °C ) Dew Point ( °F °C ) Humidity (%) Winds ( mph kmh ) Pressure ( in mb ) Visibility ( mi km ) Precip ( " mm )
12:52 am 00:52 Clear 59 15 45 7.2 60 60 N 10 17 30.23 1024 10 16 0.00 0.00
1:52 am 01:52 Clear 56 13.3 46 7.8 70 70 N 7 11 30.23 1024 10 16 0.00 0.00
2:52 am 02:52 Clear 56 13.3 46 7.8 70 70 NNE 10 17 30.24 1024 10 16 0.00 0.00
3:52 am 03:52 Clear 56 13.3 46 7.8 70 70 NNE 14 22 30.24 1024 10 16 0.00 0.00
4:52 am 04:52 Clear 55 12.8 46 7.8 72 72 NNE 12 19 30.27 1025 10 16 0.00 0.00
5:52 am 05:52 Clear 54 12.2 46 7.8 75 75 NE 9 15 30.29 1026 10 16 0.00 0.00
6:52 am 06:52 Clear 54 12.2 47 8.3 77 77 NE 10 17 30.30 1026 10 16 0.00 0.00
7:52 am 07:52 Sunny 53 11.7 47 8.3 80 80 ENE 9 15 30.33 1027 10 16 0.00 0.00
8:52 am 08:52 Sunny 55 12.8 48 8.9 77 77 NE 14 22 30.34 1027 10 16 0.00 0.00
9:52 am 09:52 Sunny 59 15 49 9.4 69 69 NE 15 24 30.35 1028 10 16 0.00 0.00
10:52 am 10:52 Mostly Sunny 61 16.1 48 8.9 63 63 ENE 12 19 30.37 1028 10 16 0.00 0.00
11:52 am 11:52 Mostly Sunny 64 17.8 48 8.9 56 56 ENE 9 15 30.37 1028 10 16 0.00 0.00
12:52 pm 12:52 Mostly Sunny 67 19.4 46 7.8 47 47 ENE 12 19 30.36 1028 10 16 0.00 0.00
1:52 pm 13:52 Sunny 69 20.6 44 6.7 41 41 NE 16 26 30.35 1028 10 16 0.00 0.00
2:52 pm 14:52 Mostly Sunny 70 21.1 42 5.6 37 37 NE 13 20 30.32 1027 10 16 0.00 0.00
3:52 pm 15:52 Mostly Sunny 70 21.1 41 5 35 35 E 13 20 30.31 1026 10 16 0.00 0.00
4:52 pm 16:52 Sunny 69 20.6 41 5 36 36 ENE 14 22 30.29 1026 10 16 0.00 0.00
5:52 pm 17:52 Mostly Sunny 68 20 41 5 38 38 E 10 17 30.29 1026 10 16 0.00 0.00
6:52 pm 18:52 Sunny 66 18.9 41 5 40 40 ENE 8 13 30.29 1026 10 16 0.00 0.00
7:52 pm 19:52 Clear 64 17.8 42 5.6 45 45 NE 8 13 30.29 1026 10 16 0.00 0.00
8:52 pm 20:52 Clear 63 17.2 42 5.6 47 47 ENE 9 15 30.29 1026 10 16 0.00 0.00
9:52 pm 21:52 Clear 59 15 42 5.6 54 54 E 6 9 30.30 1026 10 16 0.00 0.00
10:52 pm 22:52 Clear 58 14.4 43 6.1 58 58 E 5 7 30.31 1026 10 16 0.00 0.00
11:52 pm 23:52 Clear 54 12.2 43 6.1 67 67 ESE 7 11 30.31 1026 10 16 0.00 0.00

Powered by AerisWeather